[[{"header":{"parameterUnit":"m.s-1","parameterCategory":1,"la1":30.2991,"la2":30.254,"lo1":-89.0895,"lo2":-89.0444,"dy":0.0017,"dx":0.0017,"nx":28,"ny":28,"refTime":"2023-09-02T21:00:00:Z","depth":0,"parameterNumber":2,"parameterNumberName":"U-component_of_WINDS"},"data":[0,0,0,0,0,0,0,0,0,0,0,0,0,0,0,0,0,0,0,0,0,0,0,0,0,0,0,0,0,0,0,0,0,0,0,0,0,0,0,0,0,0,0,0,0,0,0,0,0,0,0,0,0,0,0,0,0,0,-4.8946,-4.8946,0,-4.8914,-4.8914,-4.8913,-4.8766,-4.8762,-4.8759,-4.8756,-4.8725,-4.8728,-4.873,0,0,0,0,0,0,0,0,0,0,0,0,0,-4.8881,-4.8883,-4.8946,-4.8946,-4.8945,-4.8914,-4.8914,-4.8913,-4.8766,-4.8762,-4.8758,-4.8754,-4.8724,-4.8727,-4.873,0,0,0,0,0,0,0,0,0,0,0,0,0,-4.8885,-4.8884,-4.8946,-4.8868,-4.8861,-4.8914,-4.8914,-4.8913,-4.8767,-4.8762,-4.8757,-4.8752,-4.8723,-4.8727,-4.8731,-4.8857,0,0,-4.8742,-4.8743,0,0,0,0,0,0,0,0,-4.8885,-4.8888,-4.888,-4.8874,-4.8865,-4.8839,-4.8879,-4.8895,-4.8769,-4.8803,-4.8756,-4.875,-4.8767,-4.8767,-4.8772,-4.8856,-4.8855,-4.8742,-4.8744,-4.8746,-4.8747,0,0,0,0,0,0,0,-4.8885,-4.8888,-4.8933,-4.888,-4.8871,-4.8835,-4.883,-4.8882,-4.8815,-4.88,-4.8789,-4.8787,-4.8762,-4.8769,-4.8771,-4.8854,-4.8742,-4.8745,-4.8747,-4.8749,-4.9039,-4.9045,0,0,0,0,0,0,-4.8896,-4.8889,-4.8934,-4.8932,-4.8863,-4.8841,-4.8835,-4.8853,-4.8814,-4.8803,-4.8791,-4.878,-4.8766,-4.8767,-4.8769,-4.8914,-4.8746,-4.8749,-4.8751,-4.9034,-4.9041,-4.9047,0,0,0,0,0,0,-4.8895,-4.8901,-4.8936,-4.8908,-4.8909,-4.8847,-4.8868,-4.8855,-4.8861,-4.8808,-4.8795,-4.8811,-4.8762,-4.8764,-4.8836,-4.8911,-4.8751,-4.8754,-4.9027,-4.9036,-4.9044,-4.9206,0,0,0,0,0,0,-4.8894,-4.8902,-4.8949,-4.891,-4.8912,-4.9003,-4.8873,-4.8858,-4.8868,-4.8853,-4.8822,-4.8812,-4.8758,-4.8832,-4.884,-4.8913,-4.8757,-4.902,-4.9031,-4.9041,-4.9194,-4.9219,-4.9241,0,0,0,0,0,-4.8892,-4.8996,-4.8952,-4.8958,-4.8969,-4.9008,-4.9009,-4.8943,-4.8875,-4.8921,-4.8887,-4.8813,-4.8902,-4.884,-4.8848,-4.8924,-4.9015,-4.9028,-4.904,-4.9183,-4.9214,-4.924,0,0,0,0,0,0,-4.9046,-4.899,-4.894,-4.9035,-4.9027,-4.8983,-4.904,-4.8978,-4.899,-4.8975,-4.8894,-4.8888,-4.8973,-4.8955,-4.8888,-4.9044,-4.8946,-4.8961,-4.9052,-4.9081,-4.9104,-4.9106,-4.876,0,0,0,0,0,-4.9091,-4.9127,-4.9076,-4.9165,-4.9163,-4.9103,-4.9117,-4.9067,-4.9056,-4.9053,-4.9023,-4.9016,-4.9042,-4.906,-4.9081,-4.9191,-4.9182,-4.9247,-4.9271,-4.929,-4.9303,-4.936,-4.9388,-4.9088,-4.9087,-4.9087,0,0,-4.9185,-4.9158,-4.9186,-4.9195,-4.9183,-4.9222,-4.9101,-4.9148,-4.9176,-4.906,-4.9125,-4.9104,-4.9091,-4.9182,-4.9221,-4.917,-4.9385,-4.9306,-4.9322,-4.9324,-4.9375,-4.9404,-4.9429,-4.9096,-4.9094,-4.9093,0,0,-4.9374,-4.9358,-4.943,-4.9421,-4.9404,-4.9363,-4.9381,-4.9346,-4.9327,-4.9392,-4.9305,-4.9339,-4.9385,-4.9379,-4.9382,-4.957,-4.9503,-4.958,-4.9701,-4.9757,-4.9781,-4.9802,-4.9868,-4.9893,-4.9593,-4.9594,-4.9594,0,-4.9492,-4.9547,-4.9475,-4.9527,-4.9534,-4.943,-4.9502,-4.9497,-4.9489,-4.9496,-4.9439,-4.9495,-4.9479,-4.9568,-4.9614,-4.962,-4.9637,-4.9582,-4.9783,-4.9803,-4.9821,-4.9884,-4.9909,-4.9603,-4.9602,-4.9601,-4.96,0,-4.9693,-4.9733,-4.9793,-4.9786,-4.98,-4.9862,-4.98,-4.9822,-4.9772,-4.9738,-4.9805,-4.9782,-4.9796,-4.9814,-4.9765,-4.9896,-4.9865,-4.9798,-4.9697,-4.9861,-4.9918,-4.9941,-4.9617,-4.9613,-4.961,-4.9608,0,0,-4.9978,-4.9931,-4.9954,-4.995,-4.9925,-4.9954,-5.0012,-5.0025,-5.0046,-5.0044,-5.0091,-5.0133,-5.007,-5.0074,-5.0024,-5.0073,-5.0223,-4.9999,-4.9997,-5.0041,-5.0365,-5.0415,-5.0444,-5.0179,-5.0183,-5.0187,-5.0366,0,-5.0158,-5.0253,-5.019,-5.0296,-5.0331,-5.0234,-5.0284,-5.0274,-5.0244,-5.027,-5.0237,-5.0268,-5.0183,-5.0184,-5.0229,-5.0196,-5.0287,-5.0182,-5.0222,-5.0224,-5.0227,-5.0474,-5.0527,-5.0698,-5.0388,-5.0392,-5.0395,0,-5.0381,-5.0388,-5.0497,-5.0464,-5.0477,-5.0523,-5.053,-5.0557,-5.0544,-5.0518,-5.0523,-5.0461,-5.0516,-5.0418,-5.0493,-5.0423,-5.0435,-5.0422,-5.0427,-5.0427,-5.0318,-5.0481,-5.075,-5.0776,-5.0429,-5.0427,-5.0424,0,-5.0577,-5.0614,-5.0684,-5.0683,-5.0647,-5.0682,-5.0668,-5.065,-5.0663,-5.0669,-5.0676,-5.0691,-5.0698,-5.0711,-5.0654,-5.0588,-5.0736,-5.0634,-5.0716,-5.0718,-5.0751,-5.0749,-5.1026,-5.0762,-5.0761,-5.0761,-5.076,0,-5.0784,-5.0855,-5.0771,-5.0814,-5.089,-5.0817,-5.0895,-5.0871,-5.0856,-5.0893,-5.0811,-5.0848,-5.0771,-5.08,-5.0756,-5.0825,-5.0829,-5.081,-5.0797,-5.0817,-5.0819,-5.0823,-5.0809,-5.0767,-5.0766,-5.0765,-5.0763,0,-5.1015,-5.0962,-5.1031,-5.0991,-5.0983,-5.1041,-5.1007,-5.1045,-5.1009,-5.1057,-5.1065,-5.1009,-5.1039,-5.0984,-5.1007,-5.0978,-5.1074,-5.1043,-5.1078,-5.1068,-5.1154,-5.1146,-5.1441,-5.1476,-5.1191,-5.1194,-5.1197,0,-5.115,-5.1202,-5.1167,-5.1186,-5.1177,-5.1208,-5.1219,-5.1151,-5.1167,-5.1156,-5.1196,-5.1219,-5.1234,-5.1287,-5.1249,-5.1266,-5.1235,-5.1337,-5.1237,-5.1255,-5.1235,-5.1233,-5.1237,-5.1358,-5.1361,-5.1364,-5.1366,0,-5.1396,-5.1367,-5.1386,-5.1398,-5.1414,-5.1419,-5.1419,-5.1439,-5.1366,-5.1389,-5.1418,-5.1429,-5.1453,-5.1477,-5.1485,-5.1472,-5.1408,-5.1398,-5.1418,-5.1438,-5.1455,-5.1446,-5.1133,-5.1391,-5.1389,-5.1387,-5.1386,-5.1385,-5.1582,-5.1623,-5.1605,-5.1629,-5.1622,-5.1624,-5.1657,-5.1626,-5.1649,-5.1662,-5.1621,-5.166,-5.1646,-5.1651,-5.1645,-5.1675,-5.1629,-5.1659,-5.1666,-5.1674,-5.1687,-5.1452,-5.1676,-5.1676,-5.1675,-5.1674,-5.1674,0,-5.1821,-5.1805,-5.1829,-5.183,-5.185,-5.1788,-5.1784,-5.1805,-5.184,-5.1833,-5.1849,-5.1883,-5.1906,-5.187,-5.1887,-5.1918,-5.1889,-5.1925,-5.1922,-5.192,-5.1727,-5.1707,-5.1948,-5.1948,-5.1948,-5.1948,-5.1948,-5.1948,-5.1948,-5.2014,-5.1984,-5.2046,-5.2029,-5.2065,-5.2069,-5.207,-5.2064,-5.2105,-5.2123,-5.21,-5.2082,-5.2097,-5.2116,-5.2104,-5.2114,-5.2161,-5.214,-5.196,-5.1933,-5.1907,-5.1889,-5.2164,-5.2164,-5.2329,-5.2331,-5.2332]},{"header":{"parameterUnit":"m.s-1","parameterCategory":1,"la1":30.2991,"la2":30.254,"lo1":-89.0895,"lo2":-89.0444,"dy":0.0017,"dx":0.0017,"nx":28,"ny":28,"refTime":"2023-09-02T21:00:00:Z","depth":0,"parameterNumber":3,"parameterNumberName":"V-component_of_WINDS"},"data":[0,0,0,0,0,0,0,0,0,0,0,0,0,0,0,0,0,0,0,0,0,0,0,0,0,0,0,0,0,0,0,0,0,0,0,0,0,0,0,0,0,0,0,0,0,0,0,0,0,0,0,0,0,0,0,0,0,0,2.1673,2.1673,0,2.1715,2.1716,2.1716,2.1749,2.1749,2.175,2.175,2.1788,2.1788,2.1789,0,0,0,0,0,0,0,0,0,0,0,0,0,2.1616,2.1617,2.1672,2.1673,2.1674,2.1715,2.1716,2.1716,2.1749,2.1749,2.175,2.175,2.1787,2.1788,2.1789,0,0,0,0,0,0,0,0,0,0,0,0,0,2.1648,2.1617,2.1672,2.1695,2.1698,2.1715,2.1716,2.1716,2.1749,2.1749,2.175,2.175,2.1787,2.1788,2.1789,2.1786,0,0,2.1792,2.1793,0,0,0,0,0,0,0,0,2.1646,2.165,2.1691,2.1694,2.1696,2.1727,2.171,2.1739,2.1749,2.1729,2.175,2.175,2.1767,2.1769,2.1776,2.1787,2.1789,2.1792,2.1793,2.1793,2.1794,0,0,0,0,0,0,0,2.1644,2.1648,2.1689,2.1692,2.1695,2.1702,2.1707,2.1715,2.1744,2.1731,2.1733,2.1738,2.1768,2.1775,2.1777,2.179,2.1792,2.1793,2.1794,2.1794,2.1804,2.1803,0,0,0,0,0,0,2.1639,2.1646,2.1688,2.169,2.1672,2.1703,2.1708,2.1717,2.1744,2.1749,2.1738,2.174,2.1773,2.1776,2.1779,2.1779,2.1793,2.1794,2.1795,2.1804,2.1803,2.1803,0,0,0,0,0,0,2.1637,2.1642,2.1686,2.1669,2.1675,2.1703,2.1712,2.1717,2.1724,2.175,2.1755,2.174,2.1774,2.1777,2.1785,2.178,2.1795,2.1796,2.1804,2.1804,2.1803,2.1777,0,0,0,0,0,0,2.1635,2.1641,2.1641,2.1669,2.1676,2.1692,2.1712,2.1718,2.1727,2.173,2.1753,2.1757,2.1774,2.1783,2.1786,2.1782,2.1797,2.1805,2.1804,2.1803,2.1779,2.1776,2.1774,0,0,0,0,0,2.1633,2.163,2.1641,2.1645,2.1676,2.1692,2.1696,2.1717,2.1726,2.1726,2.1743,2.1756,2.1781,2.1784,2.1787,2.1783,2.1805,2.1804,2.1803,2.178,2.1777,2.1774,0,0,0,0,0,0,2.1597,2.1634,2.1646,2.1652,2.1669,2.1698,2.1697,2.1713,2.1726,2.1728,2.1752,2.1757,2.1762,2.1774,2.1776,2.1783,2.1795,2.1795,2.1776,2.1773,2.177,2.1767,2.1797,0,0,0,0,0,2.159,2.1602,2.1632,2.1634,2.1643,2.1669,2.1676,2.1692,2.171,2.1716,2.1734,2.1749,2.1761,2.1767,2.1779,2.1781,2.1787,2.178,2.1778,2.1776,2.1775,2.1779,2.1777,2.18,2.18,2.18,0,0,2.1575,2.1597,2.1601,2.1628,2.1643,2.1653,2.1674,2.1683,2.1692,2.1717,2.1727,2.174,2.1759,2.1765,2.1768,2.1774,2.177,2.1775,2.1773,2.1773,2.1778,2.1776,2.1774,2.18,2.18,2.18,0,0,2.1553,2.157,2.1576,2.1591,2.1616,2.1634,2.1635,2.1662,2.1673,2.1684,2.1704,2.1713,2.1732,2.1746,2.1755,2.1743,2.1757,2.1746,2.1732,2.1736,2.1734,2.1733,2.173,2.1729,2.1745,2.1745,2.1745,0,2.1531,2.1549,2.1575,2.1585,2.1597,2.1624,2.1629,2.1643,2.1668,2.1675,2.1682,2.1709,2.1723,2.1734,2.1732,2.1738,2.174,2.1743,2.1733,2.1732,2.1731,2.1728,2.1727,2.1744,2.1744,2.1744,2.1744,0,2.1522,2.1534,2.1535,2.1563,2.1575,2.1582,2.1609,2.1617,2.1632,2.165,2.1661,2.168,2.1697,2.1701,2.1714,2.1714,2.1718,2.1729,2.1741,2.1727,2.1725,2.1724,2.1742,2.1742,2.1743,2.1743,0,0,2.1475,2.1521,2.1521,2.1536,2.1566,2.1576,2.1585,2.1605,2.1612,2.1629,2.1638,2.1655,2.1667,2.1678,2.1693,2.1697,2.1689,2.1708,2.1708,2.1704,2.1691,2.1683,2.1682,2.1698,2.1698,2.1698,2.169,0,2.1459,2.148,2.1505,2.1516,2.1529,2.1557,2.1565,2.1584,2.1601,2.1614,2.1632,2.1645,2.1658,2.1665,2.167,2.1688,2.1686,2.1689,2.1706,2.1706,2.1701,2.1681,2.1672,2.1663,2.169,2.1689,2.1689,0,2.1442,2.1463,2.1476,2.1509,2.1515,2.1522,2.1544,2.1556,2.1579,2.1591,2.1605,2.1623,2.1635,2.1646,2.1662,2.1664,2.1672,2.1683,2.1683,2.1685,2.1697,2.1683,2.1661,2.166,2.1688,2.1688,2.1688,0,2.141,2.144,2.1452,2.1464,2.1501,2.1506,2.1522,2.1546,2.1557,2.1576,2.1584,2.1602,2.1613,2.1626,2.1649,2.1655,2.1663,2.1676,2.1674,2.1673,2.1674,2.1673,2.1653,2.1678,2.1678,2.1678,2.1678,0,2.1389,2.1396,2.1439,2.1446,2.1456,2.1486,2.1494,2.1512,2.1533,2.1545,2.1569,2.1579,2.1608,2.1622,2.1639,2.1651,2.1655,2.1665,2.167,2.1663,2.1662,2.1669,2.167,2.1678,2.1678,2.1678,2.1678,0,2.1353,2.1382,2.1398,2.1435,2.1444,2.145,2.148,2.1489,2.1509,2.1523,2.1528,2.1558,2.1576,2.1601,2.1624,2.1636,2.1646,2.1653,2.1639,2.1642,2.1639,2.1639,2.1622,2.1622,2.1647,2.1646,2.1646,0,2.1339,2.1346,2.1384,2.1395,2.1411,2.1428,2.1441,2.1471,2.1483,2.1512,2.1517,2.1537,2.1555,2.1581,2.1605,2.1624,2.1632,2.1625,2.1634,2.1629,2.1633,2.1633,2.1634,2.1622,2.1622,2.1621,2.1621,0,2.131,2.1325,2.1344,2.1369,2.1385,2.1405,2.1426,2.1433,2.1467,2.148,2.15,2.1514,2.1541,2.1561,2.1584,2.1599,2.1616,2.1618,2.1619,2.1612,2.1605,2.161,2.1633,2.1618,2.1618,2.1619,2.1619,2.1619,2.1285,2.1294,2.1324,2.1345,2.1365,2.1385,2.1396,2.1419,2.1437,2.1463,2.1479,2.1499,2.1524,2.1557,2.1572,2.1587,2.1593,2.1594,2.1594,2.1594,2.1593,2.1603,2.1591,2.1591,2.1591,2.1591,2.1591,0,2.1259,2.128,2.13,2.1331,2.1348,2.1366,2.1391,2.1404,2.1421,2.1444,2.1463,2.1487,2.1507,2.1533,2.1555,2.1563,2.1571,2.1567,2.1567,2.1571,2.1585,2.1582,2.156,2.156,2.156,2.156,2.156,2.156,2.1247,2.1264,2.1283,2.131,2.1331,2.1353,2.1366,2.1385,2.1404,2.1431,2.1449,2.1467,2.1492,2.1517,2.1536,2.1544,2.1551,2.1545,2.1554,2.1567,2.1569,2.1572,2.157,2.1546,2.1546,2.154,2.1539,2.1539]}]]